Flight Track Log - Related Links

Times and Time Zones

All times are in EDT time to prevent confusion due to time zone crossing. See the OPT452 flight status page for this flight to view local times or setup timezone preferences in your user account.

Time Position Orientation Groundspeed Altitude Reporting Facility
EDT Latitude Longitude Course Direction KTS MPH feet Rate Location/Type
Sun 12:05:30 PM 42.4667 -71.3000 270° West 174 200 1,200  Level KA90
Sun 12:05:54 PM 42.4667 -71.3333 270° West 188 216 1,900 2,071 Climbing KA90
Sun 12:06:54 PM 42.4333 -71.3833 228° Southwest 203 234 4,100 1,700 Climbing KA90
Sun 12:07:54 PM 42.3667 -71.4333 209° Southwest 260 299 5,300 1,440 Climbing KA90
Sun 12:08:34 PM 42.3275 -71.4853 224° Southwest 258 297 6,500 722 Climbing Boston Center
Sun 12:09:42 PM 42.2636 -71.5564 219° Southwest 264 304 6,600 -222 Climbing Boston Center
Sun 12:10:49 PM 42.2017 -71.6303 221° Southwest 265 305 6,000 -330 Descending Boston Center
Sun 12:11:31 PM 42.1853 -71.6975 252° West 264 304 6,000  Level Boston Center
Sun 12:11:55 PM 42.1772 -71.7342 253° West 264 304 6,000 71 Level Boston Center
Sun 12:12:56 PM 42.1569 -71.8239 253° West 261 300 6,100  Climbing Boston Center
Sun 12:13:57 PM 42.1303 -71.9222 250° West 262 302 6,000  Descending Boston Center
Sun 12:14:58 PM 42.1017 -72.0119 247° West 265 305 6,100  Climbing Boston Center
Sun 12:15:59 PM 42.0267 -72.0292 190° South 283 326 6,000 -49 Descending Boston Center
Sun 12:17:00 PM 41.9494 -72.0242 177° South 279 321 6,000  Level Boston Center
Sun 12:18:00 PM 41.8722 -72.0192 177° South 277 319 6,000 50 Level Boston Center
Sun 12:19:01 PM 41.7889 -72.0142 177° South 278 320 6,100  Climbing Boston Center
Sun 12:20:08 PM 41.7056 -72.0092 177° South 278 320 6,000 -49 Descending Boston Center
Sun 12:21:03 PM 41.6367 -72.0039 177° South 270 311 6,000  Level Boston Center
Sun 12:22:04 PM 41.5617 -72.0044 180° South 268 308 6,000  Level Boston Center
Sun 12:23:05 PM 41.5058 -72.0686 221° Southwest 268 308 6,000  Level Boston Center
Sun 12:24:12 PM 41.4456 -72.1439 223° Southwest 264 304 6,000  Level Boston Center
Sun 12:25:07 PM 41.3956 -72.2050 223° Southwest 264 304 6,000  Level Boston Center
Sun 12:26:08 PM 41.3417 -72.2742 224° Southwest 262 302 6,000  Level Boston Center
Sun 12:27:09 PM 41.2917 -72.3433 226° Southwest 262 302 6,000 -103 Level Boston Center
Sun 12:29:00 PM 41.1900 -72.4488 222° Southwest  Level FlightAware Approximate
Sun 12:30:00 PM 41.1333 -72.5333 222° Southwest 261 300 5,600  Level New York TRACON
Sun 12:31:00 PM 41.0833 -72.6000 225° Southwest 259 298 4,600 -800 Descending New York TRACON
Sun 12:32:00 PM 41.0333 -72.6667 225° Southwest 269 310 4,000 -300 Descending New York TRACON
Sun 12:33:00 PM 40.9833 -72.7333 225° Southwest 268 308 4,000  Level New York TRACON
Sun 12:34:00 PM 40.9333 -72.8000 225° Southwest 268 308 4,000  Level New York TRACON
Sun 12:35:00 PM 40.9000 -72.8833 242° Southwest 265 305 4,000  Level New York TRACON
Sun 12:36:00 PM 40.8833 -72.9833 258° West 258 297 4,000  Level New York TRACON
Sun 12:37:00 PM 40.8500 -73.0667 242° Southwest 257 296 4,000  Level New York TRACON
Sun 12:38:00 PM 40.8333 -73.1667 258° West 252 290 4,000  Level New York TRACON
Sun 12:39:00 PM 40.8000 -73.2333 237° Southwest 250 288 4,000  Level New York TRACON
Sun 12:40:00 PM 40.7667 -73.3167 242° Southwest 252 290 4,000  Level New York TRACON
Sun 12:41:00 PM 40.7000 -73.3667 210° Southwest 257 296 4,000  Level New York TRACON
Sun 12:42:00 PM 40.6333 -73.4000 201° Southwest 253 291 4,000  Level New York TRACON
Sun 12:43:00 PM 40.5833 -73.4667 225° Southwest 261 300 4,000  Level New York TRACON
Sun 12:44:00 PM 40.5500 -73.5500 242° Southwest 259 298 4,000 -400 Level New York TRACON
Sun 12:45:00 PM 40.5667 -73.6333 285° West 198 228 3,200 -950 Descending New York TRACON
Sun 12:46:00 PM 40.5833 -73.6833 294° West 164 189 2,100 -1,050 Descending New York TRACON
Sun 12:47:00 PM 40.6000 -73.7167 303° West 136 157 1,100 -1,000 Descending New York TRACON
Sun 12:48:00 PM 40.6333 -73.7667 308° West  Level FlightAware Approximate
Sun 12:55:00 PM 40.6398 -73.7789 308° West  Level Estimated
Sun 12:56:00 PM 40.6398 -73.7789 308° West  Level Estimated

Login

Don't have an account? Register now (free) for customized features, flight alerts, and more!